NORTHEAST SUFFOLK  -  Frost Advisory Frost Advisory        NORTHWEST SUFFOLK  -  Frost Advisory Frost Advisory        SOUTHEAST SUFFOLK  -  Frost Advisory Frost Advisory        SOUTHWEST SUFFOLK  -  Frost Advisory Frost Advisory      

Active alerts

Northwest Suffolk
  Details for Northwest Suffolk Frost Advisory
Southwest Suffolk
  Details for Southwest Suffolk Frost Advisory
Northeast Suffolk
  Details for Northeast Suffolk Frost Advisory
Southeast Suffolk
  Details for Southeast Suffolk Frost Advisory


WXM80 ListenWXM80 Stop

You find our weather info also at:

UK Metoffice

WeatherCloud

Weather Underground

Northeastern Weather Network

AWEKAS

Citizen Weather Observer Program (CWOP)

HAMweather, WeatherForYou, PWS Weather


Weather Underground History page Text

Daily Summary for September 20, 2017 Units:  Both    English   Metric
« Previous Day
Next Day »
Daily Weekly Monthly Yearly Custom
  High: Low: Average:
Temperature: 76.8 °F /  24.9 °C 70.1 °F /  21.2 °C 73.4 °F /  23 °C
Dew Point: 70.1 °F /  21.2 °C 66.6 °F /  19.2 °C 68.2 °F /  20.1 °C
Humidity: 91 % 77 % 84 %
Wind Speed: 12.0 mph /  19.3 km/h - 6.2 mph /  10 km/h
Wind Gust: 20.0 mph /  32.2 km/h - -
Wind:- - ENE
Pressure: 29.85 in /  1010.7 hPa 29.73 in /  1006.7 hPa -
Precipitation: 0.00 in /  0 mm    
Historical Graphs
 
 
Tabular Data for September 20, 2017
Time Temperature Dew Point Pressure Wind Wind Speed Wind Gust Humidity Rainfall Rate (Hourly)
00:03 70.7 °F /  21.5 °C 67.3 °F /  19.6 °C 29.79 in /  1008.7 hPa NNE 6.8 mph /  10.9 km/h 12.7 mph /  20.4 km/h 89 % 0.00 in /  0 mm
00:08 70.7 °F /  21.5 °C 67.3 °F /  19.6 °C 29.78 in /  1008.4 hPa ENE 9.6 mph /  15.4 km/h 11.5 mph /  18.5 km/h 89 % 0.00 in /  0 mm
00:13 70.7 °F /  21.5 °C 67.6 °F /  19.8 °C 29.78 in /  1008.4 hPa ENE 5.5 mph /  8.9 km/h 11.5 mph /  18.5 km/h 90 % 0.00 in /  0 mm
00:18 70.7 °F /  21.5 °C 67.6 °F /  19.8 °C 29.79 in /  1008.7 hPa NNE 7.0 mph /  11.3 km/h 15.0 mph /  24.1 km/h 90 % 0.00 in /  0 mm
00:23 70.7 °F /  21.5 °C 67.3 °F /  19.6 °C 29.78 in /  1008.4 hPa NE 9.3 mph /  15 km/h 16.1 mph /  25.9 km/h 89 % 0.00 in /  0 mm
00:28 70.7 °F /  21.5 °C 67.3 °F /  19.6 °C 29.78 in /  1008.4 hPa NNE 6.5 mph /  10.5 km/h 11.5 mph /  18.5 km/h 89 % 0.00 in /  0 mm
00:33 70.7 °F /  21.5 °C 67.6 °F /  19.8 °C 29.78 in /  1008.4 hPa NNE 8.5 mph /  13.7 km/h 15.0 mph /  24.1 km/h 90 % 0.00 in /  0 mm
00:38 70.7 °F /  21.5 °C 67.3 °F /  19.6 °C 29.78 in /  1008.4 hPa NNE 7.2 mph /  11.6 km/h 11.5 mph /  18.5 km/h 89 % 0.00 in /  0 mm
00:43 70.7 °F /  21.5 °C 67.3 °F /  19.6 °C 29.78 in /  1008.4 hPa NE 5.9 mph /  9.5 km/h 16.1 mph /  25.9 km/h 89 % 0.00 in /  0 mm
00:48 70.7 °F /  21.5 °C 67.3 °F /  19.6 °C 29.78 in /  1008.4 hPa NNE 4.6 mph /  7.4 km/h 7.0 mph /  11.3 km/h 89 % 0.00 in /  0 mm
00:53 70.7 °F /  21.5 °C 67.3 °F /  19.6 °C 29.78 in /  1008.4 hPa ENE 5.7 mph /  9.2 km/h 12.0 mph /  19.3 km/h 89 % 0.00 in /  0 mm
00:58 70.8 °F /  21.6 °C 67.4 °F /  19.7 °C 29.78 in /  1008.4 hPa NE 6.4 mph /  10.3 km/h 9.2 mph /  14.8 km/h 89 % 0.00 in /  0 mm
01:03 70.8 °F /  21.6 °C 67.4 °F /  19.7 °C 29.78 in /  1008.4 hPa NNE 6.8 mph /  10.9 km/h 13.8 mph /  22.2 km/h 89 % 0.00 in /  0 mm
01:08 70.8 °F /  21.6 °C 67.4 °F /  19.7 °C 29.77 in /  1008 hPa NNE 7.0 mph /  11.3 km/h 11.5 mph /  18.5 km/h 89 % 0.00 in /  0 mm
01:13 70.8 °F /  21.6 °C 67.4 °F /  19.7 °C 29.77 in /  1008 hPa NE 8.6 mph /  13.8 km/h 16.1 mph /  25.9 km/h 89 % 0.00 in /  0 mm
01:18 70.9 °F /  21.6 °C 67.5 °F /  19.7 °C 29.77 in /  1008 hPa NNE 6.2 mph /  10 km/h 11.5 mph /  18.5 km/h 89 % 0.00 in /  0 mm
01:23 70.9 °F /  21.6 °C 67.5 °F /  19.7 °C 29.77 in /  1008 hPa NE 6.8 mph /  10.9 km/h 11.5 mph /  18.5 km/h 89 % 0.00 in /  0 mm
01:28 71.0 °F /  21.7 °C 67.6 °F /  19.8 °C 29.77 in /  1008 hPa NE 8.3 mph /  13.4 km/h 15.0 mph /  24.1 km/h 89 % 0.00 in /  0 mm
01:33 71.0 °F /  21.7 °C 67.6 °F /  19.8 °C 29.77 in /  1008 hPa NNE 6.5 mph /  10.5 km/h 10.4 mph /  16.7 km/h 89 % 0.00 in /  0 mm
01:39 71.0 °F /  21.7 °C 67.6 °F /  19.8 °C 29.77 in /  1008 hPa NE 9.4 mph /  15.1 km/h 16.1 mph /  25.9 km/h 89 % 0.00 in /  0 mm
01:44 71.1 °F /  21.7 °C 67.7 °F /  19.8 °C 29.77 in /  1008 hPa ENE 8.9 mph /  14.3 km/h 17.3 mph /  27.8 km/h 89 % 0.00 in /  0 mm
01:49 71.1 °F /  21.7 °C 67.7 °F /  19.8 °C 29.77 in /  1008 hPa NE 9.2 mph /  14.8 km/h 15.0 mph /  24.1 km/h 89 % 0.00 in /  0 mm
01:54 71.1 °F /  21.7 °C 67.7 °F /  19.8 °C 29.77 in /  1008 hPa NE 8.0 mph /  12.9 km/h 15.0 mph /  24.1 km/h 89 % 0.00 in /  0 mm
01:59 71.1 °F /  21.7 °C 67.7 °F /  19.8 °C 29.77 in /  1008 hPa North 9.3 mph /  15 km/h 18.4 mph /  29.6 km/h 89 % 0.00 in /  0 mm
02:04 71.1 °F /  21.7 °C 67.7 °F /  19.8 °C 29.77 in /  1008 hPa ENE 6.6 mph /  10.6 km/h 12.7 mph /  20.4 km/h 89 % 0.00 in /  0 mm
02:09 71.1 °F /  21.7 °C 67.7 °F /  19.8 °C 29.77 in /  1008 hPa ENE 6.4 mph /  10.3 km/h 12.7 mph /  20.4 km/h 89 % 0.00 in /  0 mm
02:14 71.1 °F /  21.7 °C 67.7 °F /  19.8 °C 29.77 in /  1008 hPa NE 6.5 mph /  10.5 km/h 15.0 mph /  24.1 km/h 89 % 0.00 in /  0 mm
02:19 71.1 °F /  21.7 °C 67.7 °F /  19.8 °C 29.76 in /  1007.7 hPa North 7.9 mph /  12.7 km/h 12.7 mph /  20.4 km/h 89 % 0.00 in /  0 mm
02:24 71.1 °F /  21.7 °C 67.7 °F /  19.8 °C 29.76 in /  1007.7 hPa NNE 5.4 mph /  8.7 km/h 13.8 mph /  22.2 km/h 89 % 0.00 in /  0 mm
02:29 71.1 °F /  21.7 °C 67.7 °F /  19.8 °C 29.75 in /  1007.3 hPa NE 6.7 mph /  10.8 km/h 19.6 mph /  31.5 km/h 89 % 0.00 in /  0 mm
02:34 71.1 °F /  21.7 °C 67.7 °F /  19.8 °C 29.75 in /  1007.3 hPa North 7.9 mph /  12.7 km/h 16.0 mph /  25.7 km/h 89 % 0.00 in /  0 mm
02:39 71.1 °F /  21.7 °C 67.7 °F /  19.8 °C 29.75 in /  1007.3 hPa NNE 11.3 mph /  18.2 km/h 19.6 mph /  31.5 km/h 89 % 0.00 in /  0 mm
02:44 71.0 °F /  21.7 °C 67.3 °F /  19.6 °C 29.74 in /  1007 hPa NNE 7.4 mph /  11.9 km/h 16.1 mph /  25.9 km/h 88 % 0.00 in /  0 mm
02:49 71.0 °F /  21.7 °C 67.3 °F /  19.6 °C 29.74 in /  1007 hPa NNE 6.7 mph /  10.8 km/h 11.5 mph /  18.5 km/h 88 % 0.00 in /  0 mm
02:54 71.0 °F /  21.7 °C 67.6 °F /  19.8 °C 29.74 in /  1007 hPa North 5.9 mph /  9.5 km/h 11.5 mph /  18.5 km/h 89 % 0.00 in /  0 mm
02:59 71.0 °F /  21.7 °C 67.6 °F /  19.8 °C 29.74 in /  1007 hPa NNE 7.1 mph /  11.4 km/h 12.7 mph /  20.4 km/h 89 % 0.00 in /  0 mm
03:04 70.9 °F /  21.6 °C 67.5 °F /  19.7 °C 29.74 in /  1007 hPa East 11.3 mph /  18.2 km/h 16.1 mph /  25.9 km/h 89 % 0.00 in /  0 mm
03:09 70.9 °F /  21.6 °C 67.2 °F /  19.6 °C 29.73 in /  1006.7 hPa NNW 9.2 mph /  14.8 km/h 19.6 mph /  31.5 km/h 88 % 0.00 in /  0 mm
03:14 70.9 °F /  21.6 °C 67.2 °F /  19.6 °C 29.73 in /  1006.7 hPa NE 9.0 mph /  14.5 km/h 18.4 mph /  29.6 km/h 88 % 0.00 in /  0 mm
03:20 70.9 °F /  21.6 °C 67.2 °F /  19.6 °C 29.73 in /  1006.7 hPa NNE 9.2 mph /  14.8 km/h 16.0 mph /  25.7 km/h 88 % 0.00 in /  0 mm
03:25 70.9 °F /  21.6 °C 67.5 °F /  19.7 °C 29.73 in /  1006.7 hPa North 8.3 mph /  13.4 km/h 16.1 mph /  25.9 km/h 89 % 0.00 in /  0 mm
03:30 70.9 °F /  21.6 °C 67.5 °F /  19.7 °C 29.73 in /  1006.7 hPa North 7.1 mph /  11.4 km/h 16.1 mph /  25.9 km/h 89 % 0.00 in /  0 mm
03:35 70.9 °F /  21.6 °C 67.5 °F /  19.7 °C 29.73 in /  1006.7 hPa NE 10.0 mph /  16.1 km/h 19.6 mph /  31.5 km/h 89 % 0.00 in /  0 mm
03:40 70.9 °F /  21.6 °C 67.5 °F /  19.7 °C 29.73 in /  1006.7 hPa NE 6.7 mph /  10.8 km/h 13.8 mph /  22.2 km/h 89 % 0.00 in /  0 mm
03:45 70.9 °F /  21.6 °C 67.2 °F /  19.6 °C 29.73 in /  1006.7 hPa ENE 10.5 mph /  16.9 km/h 18.4 mph /  29.6 km/h 88 % 0.00 in /  0 mm
03:50 70.9 °F /  21.6 °C 67.5 °F /  19.7 °C 29.73 in /  1006.7 hPa NNE 5.2 mph /  8.4 km/h 11.5 mph /  18.5 km/h 89 % 0.00 in /  0 mm
03:55 70.8 °F /  21.6 °C 67.4 °F /  19.7 °C 29.73 in /  1006.7 hPa North 6.6 mph /  10.6 km/h 8.1 mph /  13 km/h 89 % 0.00 in /  0 mm
04:00 70.8 °F /  21.6 °C 67.4 °F /  19.7 °C 29.74 in /  1007 hPa NNE 5.2 mph /  8.4 km/h 10.4 mph /  16.7 km/h 89 % 0.00 in /  0 mm
04:05 70.8 °F /  21.6 °C 67.4 °F /  19.7 °C 29.73 in /  1006.7 hPa ENE 9.9 mph /  15.9 km/h 16.1 mph /  25.9 km/h 89 % 0.00 in /  0 mm
04:10 70.8 °F /  21.6 °C 67.4 °F /  19.7 °C 29.73 in /  1006.7 hPa NNE 9.7 mph /  15.6 km/h 17.3 mph /  27.8 km/h 89 % 0.00 in /  0 mm
04:15 70.8 °F /  21.6 °C 67.4 °F /  19.7 °C 29.74 in /  1007 hPa ENE 6.2 mph /  10 km/h 11.5 mph /  18.5 km/h 89 % 0.00 in /  0 mm
04:20 70.7 °F /  21.5 °C 67.3 °F /  19.6 °C 29.74 in /  1007 hPa NNE 6.2 mph /  10 km/h 9.2 mph /  14.8 km/h 89 % 0.00 in /  0 mm
04:25 70.7 °F /  21.5 °C 67.3 °F /  19.6 °C 29.74 in /  1007 hPa NE 6.3 mph /  10.1 km/h 12.0 mph /  19.3 km/h 89 % 0.00 in /  0 mm
04:30 70.6 °F /  21.4 °C 67.5 °F /  19.7 °C 29.74 in /  1007 hPa ENE 6.1 mph /  9.8 km/h 9.2 mph /  14.8 km/h 90 % 0.00 in /  0 mm
04:35 70.5 °F /  21.4 °C 67.4 °F /  19.7 °C 29.74 in /  1007 hPa East 11.1 mph /  17.9 km/h 19.0 mph /  30.6 km/h 90 % 0.00 in /  0 mm
04:40 70.4 °F /  21.3 °C 67.3 °F /  19.6 °C 29.74 in /  1007 hPa North 7.1 mph /  11.4 km/h 12.0 mph /  19.3 km/h 90 % 0.00 in /  0 mm
04:45 70.3 °F /  21.3 °C 67.2 °F /  19.6 °C 29.74 in /  1007 hPa NE 7.9 mph /  12.7 km/h 16.1 mph /  25.9 km/h 90 % 0.00 in /  0 mm
04:50 70.2 °F /  21.2 °C 67.1 °F /  19.5 °C 29.74 in /  1007 hPa ENE 6.9 mph /  11.1 km/h 9.0 mph /  14.5 km/h 90 % 0.00 in /  0 mm
04:55 70.2 °F /  21.2 °C 67.4 °F /  19.7 °C 29.74 in /  1007 hPa NNE 7.7 mph /  12.4 km/h 11.5 mph /  18.5 km/h 91 % 0.00 in /  0 mm
05:01 70.2 °F /  21.2 °C 67.4 °F /  19.7 °C 29.74 in /  1007 hPa NE 5.1 mph /  8.2 km/h 8.1 mph /  13 km/h 91 % 0.00 in /  0 mm
05:06 70.2 °F /  21.2 °C 67.4 °F /  19.7 °C 29.74 in /  1007 hPa North 6.7 mph /  10.8 km/h 12.7 mph /  20.4 km/h 91 % 0.00 in /  0 mm
05:11 70.1 °F /  21.2 °C 67.4 °F /  19.7 °C 29.73 in /  1006.7 hPa NE 7.0 mph /  11.3 km/h 16.0 mph /  25.7 km/h 91 % 0.00 in /  0 mm
05:16 70.2 °F /  21.2 °C 67.4 °F /  19.7 °C 29.73 in /  1006.7 hPa NE 9.0 mph /  14.5 km/h 20.0 mph /  32.2 km/h 91 % 0.00 in /  0 mm
05:21 70.2 °F /  21.2 °C 67.4 °F /  19.7 °C 29.74 in /  1007 hPa NE 7.0 mph /  11.3 km/h 15.0 mph /  24.1 km/h 91 % 0.00 in /  0 mm
05:26 70.3 °F /  21.3 °C 67.5 °F /  19.7 °C 29.74 in /  1007 hPa NE 5.0 mph /  8 km/h 14.0 mph /  22.5 km/h 91 % 0.00 in /  0 mm
05:31 70.3 °F /  21.3 °C 67.5 °F /  19.7 °C 29.74 in /  1007 hPa NE 5.0 mph /  8 km/h 13.0 mph /  20.9 km/h 91 % 0.00 in /  0 mm
05:35 70.3 °F /  21.3 °C 67.5 °F /  19.7 °C 29.74 in /  1007 hPa NNE 4.6 mph /  7.4 km/h 9.2 mph /  14.8 km/h 91 % 0.00 in /  0 mm
05:40 70.3 °F /  21.3 °C 67.5 °F /  19.7 °C 29.74 in /  1007 hPa NNE 7.0 mph /  11.3 km/h 11.5 mph /  18.5 km/h 91 % 0.00 in /  0 mm
05:45 70.3 °F /  21.3 °C 67.5 °F /  19.7 °C 29.74 in /  1007 hPa NE 7.6 mph /  12.2 km/h 13.0 mph /  20.9 km/h 91 % 0.00 in /  0 mm
05:50 70.4 °F /  21.3 °C 67.6 °F /  19.8 °C 29.74 in /  1007 hPa NE 5.8 mph /  9.3 km/h 17.3 mph /  27.8 km/h 91 % 0.00 in /  0 mm
05:53 70.4 °F /  21.3 °C 67.6 °F /  19.8 °C 29.74 in /  1007 hPa NNE 6.9 mph /  11.1 km/h 12.7 mph /  20.4 km/h 91 % 0.00 in /  0 mm
05:58 70.4 °F /  21.3 °C 67.3 °F /  19.6 °C 29.74 in /  1007 hPa NNE 6.2 mph /  10 km/h 10.4 mph /  16.7 km/h 90 % 0.00 in /  0 mm
06:03 70.6 °F /  21.4 °C 67.5 °F /  19.7 °C 29.74 in /  1007 hPa NE 6.7 mph /  10.8 km/h 18.4 mph /  29.6 km/h 90 % 0.00 in /  0 mm
06:08 70.6 °F /  21.4 °C 67.5 °F /  19.7 °C 29.75 in /  1007.3 hPa NNE 7.5 mph /  12.1 km/h 11.5 mph /  18.5 km/h 90 % 0.00 in /  0 mm
06:13 70.7 °F /  21.5 °C 67.6 °F /  19.8 °C 29.75 in /  1007.3 hPa North 7.5 mph /  12.1 km/h 18.4 mph /  29.6 km/h 90 % 0.00 in /  0 mm
06:18 70.8 °F /  21.6 °C 67.7 °F /  19.8 °C 29.75 in /  1007.3 hPa NNE 7.9 mph /  12.7 km/h 13.8 mph /  22.2 km/h 90 % 0.00 in /  0 mm
06:23 70.9 °F /  21.6 °C 67.5 °F /  19.7 °C 29.75 in /  1007.3 hPa NE 6.2 mph /  10 km/h 11.5 mph /  18.5 km/h 89 % 0.00 in /  0 mm
06:28 71.0 °F /  21.7 °C 67.6 °F /  19.8 °C 29.75 in /  1007.3 hPa North 7.2 mph /  11.6 km/h 12.7 mph /  20.4 km/h 89 % 0.00 in /  0 mm
06:34 71.0 °F /  21.7 °C 67.6 °F /  19.8 °C 29.75 in /  1007.3 hPa North 11.7 mph /  18.8 km/h 19.0 mph /  30.6 km/h 89 % 0.00 in /  0 mm
06:39 71.1 °F /  21.7 °C 67.7 °F /  19.8 °C 29.75 in /  1007.3 hPa North 10.2 mph /  16.4 km/h 15.0 mph /  24.1 km/h 89 % 0.00 in /  0 mm
06:44 71.2 °F /  21.8 °C 67.8 °F /  19.9 °C 29.75 in /  1007.3 hPa NNE 11.2 mph /  18 km/h 17.3 mph /  27.8 km/h 89 % 0.00 in /  0 mm
06:49 71.2 °F /  21.8 °C 67.8 °F /  19.9 °C 29.75 in /  1007.3 hPa ENE 8.7 mph /  14 km/h 16.1 mph /  25.9 km/h 89 % 0.00 in /  0 mm
06:54 71.3 °F /  21.8 °C 67.9 °F /  19.9 °C 29.75 in /  1007.3 hPa North 8.8 mph /  14.2 km/h 16.1 mph /  25.9 km/h 89 % 0.00 in /  0 mm
06:59 71.3 °F /  21.8 °C 67.9 °F /  19.9 °C 29.75 in /  1007.3 hPa NNE 6.5 mph /  10.5 km/h 13.8 mph /  22.2 km/h 89 % 0.00 in /  0 mm
07:04 71.3 °F /  21.8 °C 67.9 °F /  19.9 °C 29.75 in /  1007.3 hPa NE 10.9 mph /  17.5 km/h 16.1 mph /  25.9 km/h 89 % 0.00 in /  0 mm
07:09 71.3 °F /  21.8 °C 67.6 °F /  19.8 °C 29.76 in /  1007.7 hPa NE 9.1 mph /  14.6 km/h 18.4 mph /  29.6 km/h 88 % 0.00 in /  0 mm
07:14 71.4 °F /  21.9 °C 67.7 °F /  19.8 °C 29.76 in /  1007.7 hPa NNE 9.4 mph /  15.1 km/h 19.6 mph /  31.5 km/h 88 % 0.00 in /  0 mm
07:19 71.5 °F /  21.9 °C 67.8 °F /  19.9 °C 29.76 in /  1007.7 hPa NE 9.2 mph /  14.8 km/h 16.0 mph /  25.7 km/h 88 % 0.00 in /  0 mm
07:24 71.5 °F /  21.9 °C 67.8 °F /  19.9 °C 29.76 in /  1007.7 hPa NNE 8.6 mph /  13.8 km/h 15.0 mph /  24.1 km/h 88 % 0.00 in /  0 mm
07:29 71.6 °F /  22 °C 67.9 °F /  19.9 °C 29.76 in /  1007.7 hPa NE 7.0 mph /  11.3 km/h 11.5 mph /  18.5 km/h 88 % 0.00 in /  0 mm
07:34 71.6 °F /  22 °C 67.9 °F /  19.9 °C 29.76 in /  1007.7 hPa North 10.0 mph /  16.1 km/h 19.0 mph /  30.6 km/h 88 % 0.00 in /  0 mm
07:39 71.7 °F /  22.1 °C 68.0 °F /  20 °C 29.76 in /  1007.7 hPa NE 10.6 mph /  17.1 km/h 13.8 mph /  22.2 km/h 88 % 0.00 in /  0 mm
07:44 71.7 °F /  22.1 °C 68.0 °F /  20 °C 29.76 in /  1007.7 hPa NNW 8.3 mph /  13.4 km/h 11.5 mph /  18.5 km/h 88 % 0.00 in /  0 mm
07:49 71.8 °F /  22.1 °C 68.1 °F /  20.1 °C 29.77 in /  1008 hPa NE 11.5 mph /  18.5 km/h 12.7 mph /  20.4 km/h 88 % 0.00 in /  0 mm
07:54 71.8 °F /  22.1 °C 68.1 °F /  20.1 °C 29.77 in /  1008 hPa NE 9.6 mph /  15.4 km/h 16.0 mph /  25.7 km/h 88 % 0.00 in /  0 mm
07:59 71.8 °F /  22.1 °C 68.1 °F /  20.1 °C 29.76 in /  1007.7 hPa North 9.7 mph /  15.6 km/h 15.0 mph /  24.1 km/h 88 % 0.00 in /  0 mm
08:04 71.9 °F /  22.2 °C 68.2 °F /  20.1 °C 29.77 in /  1008 hPa North 10.0 mph /  16.1 km/h 16.0 mph /  25.7 km/h 88 % 0.00 in /  0 mm
08:10 71.9 °F /  22.2 °C 67.8 °F /  19.9 °C 29.77 in /  1008 hPa NNE 9.7 mph /  15.6 km/h 16.1 mph /  25.9 km/h 87 % 0.00 in /  0 mm
08:15 72.0 °F /  22.2 °C 67.9 °F /  19.9 °C 29.77 in /  1008 hPa NNE 8.7 mph /  14 km/h 11.5 mph /  18.5 km/h 87 % 0.00 in /  0 mm
08:20 72.1 °F /  22.3 °C 68.0 °F /  20 °C 29.77 in /  1008 hPa NNE 7.8 mph /  12.6 km/h 14.0 mph /  22.5 km/h 87 % 0.00 in /  0 mm
08:25 72.1 °F /  22.3 °C 68.0 °F /  20 °C 29.77 in /  1008 hPa NNE 11.2 mph /  18 km/h 15.0 mph /  24.1 km/h 87 % 0.00 in /  0 mm
08:30 72.2 °F /  22.3 °C 68.1 °F /  20.1 °C 29.77 in /  1008 hPa NE 10.1 mph /  16.3 km/h 12.0 mph /  19.3 km/h 87 % 0.00 in /  0 mm
08:35 72.3 °F /  22.4 °C 68.2 °F /  20.1 °C 29.78 in /  1008.4 hPa NE 8.8 mph /  14.2 km/h 15.0 mph /  24.1 km/h 87 % 0.00 in /  0 mm
08:40 72.3 °F /  22.4 °C 67.9 °F /  19.9 °C 29.78 in /  1008.4 hPa NE 8.5 mph /  13.7 km/h 14.0 mph /  22.5 km/h 86 % 0.00 in /  0 mm
08:45 72.5 °F /  22.5 °C 68.4 °F /  20.2 °C 29.78 in /  1008.4 hPa NE 8.1 mph /  13 km/h 18.0 mph /  29 km/h 87 % 0.00 in /  0 mm
08:50 72.6 °F /  22.6 °C 68.2 °F /  20.1 °C 29.78 in /  1008.4 hPa NNE 8.4 mph /  13.5 km/h 12.7 mph /  20.4 km/h 86 % 0.00 in /  0 mm
08:55 72.6 °F /  22.6 °C 68.5 °F /  20.3 °C 29.79 in /  1008.7 hPa NNE 6.5 mph /  10.5 km/h 14.0 mph /  22.5 km/h 87 % 0.00 in /  0 mm
09:00 72.6 °F /  22.6 °C 68.2 °F /  20.1 °C 29.79 in /  1008.7 hPa North 9.1 mph /  14.6 km/h 11.5 mph /  18.5 km/h 86 % 0.00 in /  0 mm
09:06 72.7 °F /  22.6 °C 68.3 °F /  20.2 °C 29.79 in /  1008.7 hPa NNE 9.0 mph /  14.5 km/h 15.0 mph /  24.1 km/h 86 % 0.00 in /  0 mm
09:11 72.8 °F /  22.7 °C 68.4 °F /  20.2 °C 29.79 in /  1008.7 hPa NNE 7.0 mph /  11.3 km/h 14.0 mph /  22.5 km/h 86 % 0.00 in /  0 mm
09:16 72.9 °F /  22.7 °C 68.5 °F /  20.3 °C 29.79 in /  1008.7 hPa NNE 8.0 mph /  12.9 km/h 16.0 mph /  25.7 km/h 86 % 0.00 in /  0 mm
09:21 73.0 °F /  22.8 °C 68.6 °F /  20.3 °C 29.79 in /  1008.7 hPa NNE 12.0 mph /  19.3 km/h 20.0 mph /  32.2 km/h 86 % 0.00 in /  0 mm
09:26 73.1 °F /  22.8 °C 68.7 °F /  20.4 °C 29.79 in /  1008.7 hPa North 6.0 mph /  9.7 km/h 14.0 mph /  22.5 km/h 86 % 0.00 in /  0 mm
09:31 73.3 °F /  22.9 °C 68.9 °F /  20.5 °C 29.79 in /  1008.7 hPa North 6.0 mph /  9.7 km/h 15.0 mph /  24.1 km/h 86 % 0.00 in /  0 mm
09:36 73.5 °F /  23.1 °C 68.7 °F /  20.4 °C 29.79 in /  1008.7 hPa NNE 6.7 mph /  10.8 km/h 15.0 mph /  24.1 km/h 85 % 0.00 in /  0 mm
09:41 73.6 °F /  23.1 °C 68.8 °F /  20.4 °C 29.79 in /  1008.7 hPa North 8.5 mph /  13.7 km/h 11.5 mph /  18.5 km/h 85 % 0.00 in /  0 mm
09:46 73.8 °F /  23.2 °C 68.7 °F /  20.4 °C 29.79 in /  1008.7 hPa NNE 7.8 mph /  12.6 km/h 11.5 mph /  18.5 km/h 84 % 0.00 in /  0 mm
09:51 73.9 °F /  23.3 °C 68.8 °F /  20.4 °C 29.79 in /  1008.7 hPa North 7.2 mph /  11.6 km/h 12.0 mph /  19.3 km/h 84 % 0.00 in /  0 mm
09:56 73.9 °F /  23.3 °C 68.8 °F /  20.4 °C 29.79 in /  1008.7 hPa ENE 8.6 mph /  13.8 km/h 11.5 mph /  18.5 km/h 84 % 0.00 in /  0 mm
10:01 73.9 °F /  23.3 °C 68.8 °F /  20.4 °C 29.79 in /  1008.7 hPa NNE 10.3 mph /  16.6 km/h 15.0 mph /  24.1 km/h 84 % 0.00 in /  0 mm
10:06 74.0 °F /  23.3 °C 68.9 °F /  20.5 °C 29.79 in /  1008.7 hPa NNE 9.5 mph /  15.3 km/h 13.0 mph /  20.9 km/h 84 % 0.00 in /  0 mm
10:11 74.0 °F /  23.3 °C 68.9 °F /  20.5 °C 29.79 in /  1008.7 hPa NNE 8.0 mph /  12.9 km/h 13.8 mph /  22.2 km/h 84 % 0.00 in /  0 mm
10:16 74.1 °F /  23.4 °C 69.0 °F /  20.6 °C 29.79 in /  1008.7 hPa North 9.4 mph /  15.1 km/h 11.5 mph /  18.5 km/h 84 % 0.00 in /  0 mm
10:21 74.2 °F /  23.4 °C 69.1 °F /  20.6 °C 29.79 in /  1008.7 hPa NNE 8.4 mph /  13.5 km/h 9.2 mph /  14.8 km/h 84 % 0.00 in /  0 mm
10:26 74.4 °F /  23.6 °C 69.2 °F /  20.7 °C 29.78 in /  1008.4 hPa NNE 7.0 mph /  11.3 km/h 11.5 mph /  18.5 km/h 84 % 0.00 in /  0 mm
10:31 74.6 °F /  23.7 °C 69.1 °F /  20.6 °C 29.79 in /  1008.7 hPa NNE 6.7 mph /  10.8 km/h 12.7 mph /  20.4 km/h 83 % 0.00 in /  0 mm
10:37 74.8 °F /  23.8 °C 69.6 °F /  20.9 °C 29.79 in /  1008.7 hPa North 7.1 mph /  11.4 km/h 11.5 mph /  18.5 km/h 84 % 0.00 in /  0 mm
10:42 75.0 °F /  23.9 °C 69.8 °F /  21 °C 29.79 in /  1008.7 hPa NE 7.8 mph /  12.6 km/h 10.4 mph /  16.7 km/h 84 % 0.00 in /  0 mm
10:47 75.1 °F /  23.9 °C 69.6 °F /  20.9 °C 29.79 in /  1008.7 hPa NNE 7.5 mph /  12.1 km/h 11.5 mph /  18.5 km/h 83 % 0.00 in /  0 mm
10:52 75.1 °F /  23.9 °C 69.2 °F /  20.7 °C 29.79 in /  1008.7 hPa NNE 6.9 mph /  11.1 km/h 11.5 mph /  18.5 km/h 82 % 0.00 in /  0 mm
10:57 75.1 °F /  23.9 °C 69.2 °F /  20.7 °C 29.79 in /  1008.7 hPa NNE 7.7 mph /  12.4 km/h 16.1 mph /  25.9 km/h 82 % 0.00 in /  0 mm
11:02 75.1 °F /  23.9 °C 69.2 °F /  20.7 °C 29.79 in /  1008.7 hPa NNE 7.6 mph /  12.2 km/h 12.7 mph /  20.4 km/h 82 % 0.00 in /  0 mm
11:07 75.2 °F /  24 °C 69.3 °F /  20.7 °C 29.79 in /  1008.7 hPa North 7.1 mph /  11.4 km/h 13.8 mph /  22.2 km/h 82 % 0.00 in /  0 mm
11:12 75.3 °F /  24.1 °C 69.8 °F /  21 °C 29.79 in /  1008.7 hPa NNW 5.1 mph /  8.2 km/h 9.2 mph /  14.8 km/h 83 % 0.00 in /  0 mm
11:17 75.3 °F /  24.1 °C 69.4 °F /  20.8 °C 29.79 in /  1008.7 hPa NE 4.5 mph /  7.2 km/h 10.0 mph /  16.1 km/h 82 % 0.00 in /  0 mm
11:22 75.3 °F /  24.1 °C 69.4 °F /  20.8 °C 29.79 in /  1008.7 hPa North 5.5 mph /  8.9 km/h 11.5 mph /  18.5 km/h 82 % 0.00 in /  0 mm
11:27 75.4 °F /  24.1 °C 69.5 °F /  20.8 °C 29.79 in /  1008.7 hPa NNE 5.0 mph /  8 km/h 9.0 mph /  14.5 km/h 82 % 0.00 in /  0 mm
11:32 75.4 °F /  24.1 °C 69.9 °F /  21.1 °C 29.79 in /  1008.7 hPa North 5.1 mph /  8.2 km/h 8.1 mph /  13 km/h 83 % 0.00 in /  0 mm
11:37 75.5 °F /  24.2 °C 69.6 °F /  20.9 °C 29.79 in /  1008.7 hPa North 3.9 mph /  6.3 km/h 10.4 mph /  16.7 km/h 82 % 0.00 in /  0 mm
11:42 75.7 °F /  24.3 °C 69.8 °F /  21 °C 29.79 in /  1008.7 hPa North 5.2 mph /  8.4 km/h 5.8 mph /  9.3 km/h 82 % 0.00 in /  0 mm
11:47 75.8 °F /  24.3 °C 69.9 °F /  21.1 °C 29.79 in /  1008.7 hPa North 7.3 mph /  11.7 km/h 11.5 mph /  18.5 km/h 82 % 0.00 in /  0 mm
11:52 75.9 °F /  24.4 °C 69.6 °F /  20.9 °C 29.79 in /  1008.7 hPa NE 5.8 mph /  9.3 km/h 11.5 mph /  18.5 km/h 81 % 0.00 in /  0 mm
11:58 76.0 °F /  24.4 °C 70.1 °F /  21.2 °C 29.79 in /  1008.7 hPa NE 7.1 mph /  11.4 km/h 8.1 mph /  13 km/h 82 % 0.00 in /  0 mm
12:03 76.0 °F /  24.4 °C 69.7 °F /  20.9 °C 29.79 in /  1008.7 hPa North 6.1 mph /  9.8 km/h 6.9 mph /  11.1 km/h 81 % 0.00 in /  0 mm
12:08 76.0 °F /  24.4 °C 69.4 °F /  20.8 °C 29.79 in /  1008.7 hPa NNE 7.4 mph /  11.9 km/h 11.5 mph /  18.5 km/h 80 % 0.00 in /  0 mm
12:13 76.0 °F /  24.4 °C 69.4 °F /  20.8 °C 29.79 in /  1008.7 hPa NNE 8.9 mph /  14.3 km/h 17.3 mph /  27.8 km/h 80 % 0.00 in /  0 mm
12:18 76.0 °F /  24.4 °C 69.4 °F /  20.8 °C 29.79 in /  1008.7 hPa NNE 7.0 mph /  11.3 km/h 11.5 mph /  18.5 km/h 80 % 0.00 in /  0 mm
12:23 76.1 °F /  24.5 °C 69.8 °F /  21 °C 29.79 in /  1008.7 hPa NNE 5.9 mph /  9.5 km/h 11.5 mph /  18.5 km/h 81 % 0.00 in /  0 mm
12:28 76.2 °F /  24.6 °C 69.9 °F /  21.1 °C 29.80 in /  1009 hPa NNE 6.2 mph /  10 km/h 9.2 mph /  14.8 km/h 81 % 0.00 in /  0 mm
12:33 76.2 °F /  24.6 °C 69.9 °F /  21.1 °C 29.80 in /  1009 hPa NNE 4.3 mph /  6.9 km/h 6.9 mph /  11.1 km/h 81 % 0.00 in /  0 mm
12:38 76.1 °F /  24.5 °C 69.8 °F /  21 °C 29.80 in /  1009 hPa NNE 4.2 mph /  6.8 km/h 9.2 mph /  14.8 km/h 81 % 0.00 in /  0 mm
12:43 76.0 °F /  24.4 °C 69.4 °F /  20.8 °C 29.80 in /  1009 hPa NNE 5.2 mph /  8.4 km/h 11.5 mph /  18.5 km/h 80 % 0.00 in /  0 mm
12:48 75.9 °F /  24.4 °C 69.3 °F /  20.7 °C 29.80 in /  1009 hPa NE 5.9 mph /  9.5 km/h 9.2 mph /  14.8 km/h 80 % 0.00 in /  0 mm
12:53 75.8 °F /  24.3 °C 69.6 °F /  20.9 °C 29.80 in /  1009 hPa North 7.1 mph /  11.4 km/h 11.5 mph /  18.5 km/h 81 % 0.00 in /  0 mm
12:58 75.8 °F /  24.3 °C 69.2 °F /  20.7 °C 29.80 in /  1009 hPa North 6.1 mph /  9.8 km/h 10.4 mph /  16.7 km/h 80 % 0.00 in /  0 mm
13:03 75.7 °F /  24.3 °C 69.1 °F /  20.6 °C 29.80 in /  1009 hPa North 6.6 mph /  10.6 km/h 11.5 mph /  18.5 km/h 80 % 0.00 in /  0 mm
13:08 75.7 °F /  24.3 °C 69.5 °F /  20.8 °C 29.80 in /  1009 hPa North 5.8 mph /  9.3 km/h 10.4 mph /  16.7 km/h 81 % 0.00 in /  0 mm
13:13 75.8 °F /  24.3 °C 69.6 °F /  20.9 °C 29.80 in /  1009 hPa NNE 5.2 mph /  8.4 km/h 10.0 mph /  16.1 km/h 81 % 0.00 in /  0 mm
13:18 75.9 °F /  24.4 °C 69.6 °F /  20.9 °C 29.79 in /  1008.7 hPa NNW 6.2 mph /  10 km/h 11.5 mph /  18.5 km/h 81 % 0.00 in /  0 mm
13:23 76.1 °F /  24.5 °C 69.8 °F /  21 °C 29.79 in /  1008.7 hPa North 3.9 mph /  6.3 km/h 7.0 mph /  11.3 km/h 81 % 0.00 in /  0 mm
13:28 76.3 °F /  24.6 °C 70.0 °F /  21.1 °C 29.79 in /  1008.7 hPa NE 4.9 mph /  7.9 km/h 9.2 mph /  14.8 km/h 81 % 0.00 in /  0 mm
13:33 76.5 °F /  24.7 °C 69.9 °F /  21.1 °C 29.79 in /  1008.7 hPa NNW 4.5 mph /  7.2 km/h 9.2 mph /  14.8 km/h 80 % 0.00 in /  0 mm
13:38 76.7 °F /  24.8 °C 69.7 °F /  20.9 °C 29.79 in /  1008.7 hPa NNE 8.9 mph /  14.3 km/h 13.8 mph /  22.2 km/h 79 % 0.00 in /  0 mm
13:43 76.8 °F /  24.9 °C 69.8 °F /  21 °C 29.79 in /  1008.7 hPa NNE 4.7 mph /  7.6 km/h 9.2 mph /  14.8 km/h 79 % 0.00 in /  0 mm
13:48 76.7 °F /  24.8 °C 69.7 °F /  20.9 °C 29.79 in /  1008.7 hPa North 5.2 mph /  8.4 km/h 8.1 mph /  13 km/h 79 % 0.00 in /  0 mm
13:53 76.6 °F /  24.8 °C 69.6 °F /  20.9 °C 29.79 in /  1008.7 hPa North 4.3 mph /  6.9 km/h 6.0 mph /  9.7 km/h 79 % 0.00 in /  0 mm
13:58 76.5 °F /  24.7 °C 69.5 °F /  20.8 °C 29.79 in /  1008.7 hPa North 5.1 mph /  8.2 km/h 12.0 mph /  19.3 km/h 79 % 0.00 in /  0 mm
14:03 76.3 °F /  24.6 °C 69.3 °F /  20.7 °C 29.79 in /  1008.7 hPa NNE 5.9 mph /  9.5 km/h 10.4 mph /  16.7 km/h 79 % 0.00 in /  0 mm
14:08 76.2 °F /  24.6 °C 69.2 °F /  20.7 °C 29.79 in /  1008.7 hPa North 6.5 mph /  10.5 km/h 11.5 mph /  18.5 km/h 79 % 0.00 in /  0 mm
14:14 76.2 °F /  24.6 °C 69.6 °F /  20.9 °C 29.79 in /  1008.7 hPa NNE 5.7 mph /  9.2 km/h 9.0 mph /  14.5 km/h 80 % 0.00 in /  0 mm
14:19 76.1 °F /  24.5 °C 69.5 °F /  20.8 °C 29.79 in /  1008.7 hPa NNE 7.1 mph /  11.4 km/h 10.4 mph /  16.7 km/h 80 % 0.00 in /  0 mm
14:24 76.1 °F /  24.5 °C 69.8 °F /  21 °C 29.79 in /  1008.7 hPa NNE 6.2 mph /  10 km/h 9.2 mph /  14.8 km/h 81 % 0.00 in /  0 mm
14:29 76.1 °F /  24.5 °C 69.8 °F /  21 °C 29.78 in /  1008.4 hPa North 4.1 mph /  6.6 km/h 11.5 mph /  18.5 km/h 81 % 0.00 in /  0 mm
14:34 76.1 °F /  24.5 °C 69.5 °F /  20.8 °C 29.78 in /  1008.4 hPa NNE 5.1 mph /  8.2 km/h 6.9 mph /  11.1 km/h 80 % 0.00 in /  0 mm
14:39 76.2 °F /  24.6 °C 69.6 °F /  20.9 °C 29.78 in /  1008.4 hPa NE 3.8 mph /  6.1 km/h 9.2 mph /  14.8 km/h 80 % 0.00 in /  0 mm
14:44 76.3 °F /  24.6 °C 69.7 °F /  20.9 °C 29.79 in /  1008.7 hPa North 5.0 mph /  8 km/h 10.0 mph /  16.1 km/h 80 % 0.00 in /  0 mm
14:54 76.5 °F /  24.7 °C 69.9 °F /  21.1 °C 29.78 in /  1008.4 hPa North 5.0 mph /  8 km/h 6.0 mph /  9.7 km/h 80 % 0.00 in /  0 mm
14:59 76.6 °F /  24.8 °C 69.6 °F /  20.9 °C 29.78 in /  1008.4 hPa North 6.7 mph /  10.8 km/h 11.5 mph /  18.5 km/h 79 % 0.00 in /  0 mm
15:04 76.6 °F /  24.8 °C 69.6 °F /  20.9 °C 29.78 in /  1008.4 hPa North 8.5 mph /  13.7 km/h 10.4 mph /  16.7 km/h 79 % 0.00 in /  0 mm
15:09 76.6 °F /  24.8 °C 69.2 °F /  20.7 °C 29.78 in /  1008.4 hPa NNE 6.6 mph /  10.6 km/h 13.8 mph /  22.2 km/h 78 % 0.00 in /  0 mm
15:14 76.6 °F /  24.8 °C 69.6 °F /  20.9 °C 29.78 in /  1008.4 hPa NNW 3.2 mph /  5.1 km/h 6.0 mph /  9.7 km/h 79 % 0.00 in /  0 mm
15:19 76.5 °F /  24.7 °C 69.1 °F /  20.6 °C 29.79 in /  1008.7 hPa North 5.1 mph /  8.2 km/h 9.2 mph /  14.8 km/h 78 % 0.00 in /  0 mm
15:24 76.4 °F /  24.7 °C 69.4 °F /  20.8 °C 29.79 in /  1008.7 hPa North 6.8 mph /  10.9 km/h 11.0 mph /  17.7 km/h 79 % 0.00 in /  0 mm
15:29 76.3 °F /  24.6 °C 69.3 °F /  20.7 °C 29.79 in /  1008.7 hPa North 5.7 mph /  9.2 km/h 9.2 mph /  14.8 km/h 79 % 0.00 in /  0 mm
15:35 76.2 °F /  24.6 °C 69.2 °F /  20.7 °C 29.79 in /  1008.7 hPa NNE 6.1 mph /  9.8 km/h 10.4 mph /  16.7 km/h 79 % 0.00 in /  0 mm
15:40 76.1 °F /  24.5 °C 69.1 °F /  20.6 °C 29.79 in /  1008.7 hPa NNE 5.3 mph /  8.5 km/h 9.2 mph /  14.8 km/h 79 % 0.00 in /  0 mm
15:45 76.1 °F /  24.5 °C 69.1 °F /  20.6 °C 29.80 in /  1009 hPa NNE 5.8 mph /  9.3 km/h 9.2 mph /  14.8 km/h 79 % 0.00 in /  0 mm
15:50 76.0 °F /  24.4 °C 69.4 °F /  20.8 °C 29.80 in /  1009 hPa NE 4.2 mph /  6.8 km/h 8.1 mph /  13 km/h 80 % 0.00 in /  0 mm
15:55 75.9 °F /  24.4 °C 69.6 °F /  20.9 °C 29.79 in /  1008.7 hPa NNE 2.6 mph /  4.2 km/h 5.8 mph /  9.3 km/h 81 % 0.00 in /  0 mm
16:00 75.8 °F /  24.3 °C 69.2 °F /  20.7 °C 29.80 in /  1009 hPa NNE 6.7 mph /  10.8 km/h 12.7 mph /  20.4 km/h 80 % 0.00 in /  0 mm
16:05 75.7 °F /  24.3 °C 69.5 °F /  20.8 °C 29.79 in /  1008.7 hPa North 4.6 mph /  7.4 km/h 10.0 mph /  16.1 km/h 81 % 0.00 in /  0 mm
16:10 75.6 °F /  24.2 °C 69.0 °F /  20.6 °C 29.80 in /  1009 hPa North 6.9 mph /  11.1 km/h 10.4 mph /  16.7 km/h 80 % 0.00 in /  0 mm
16:15 75.6 °F /  24.2 °C 69.0 °F /  20.6 °C 29.80 in /  1009 hPa NNE 6.0 mph /  9.7 km/h 10.4 mph /  16.7 km/h 80 % 0.00 in /  0 mm
16:20 75.5 °F /  24.2 °C 68.9 °F /  20.5 °C 29.80 in /  1009 hPa North 6.6 mph /  10.6 km/h 11.5 mph /  18.5 km/h 80 % 0.00 in /  0 mm
16:25 75.5 °F /  24.2 °C 68.5 °F /  20.3 °C 29.80 in /  1009 hPa North 8.3 mph /  13.4 km/h 13.0 mph /  20.9 km/h 79 % 0.00 in /  0 mm
16:30 75.5 °F /  24.2 °C 68.5 °F /  20.3 °C 29.80 in /  1009 hPa NNW 5.6 mph /  9 km/h 9.2 mph /  14.8 km/h 79 % 0.00 in /  0 mm
16:35 75.5 °F /  24.2 °C 68.9 °F /  20.5 °C 29.80 in /  1009 hPa NNE 7.4 mph /  11.9 km/h 11.5 mph /  18.5 km/h 80 % 0.00 in /  0 mm
16:40 75.5 °F /  24.2 °C 68.9 °F /  20.5 °C 29.80 in /  1009 hPa North 6.8 mph /  10.9 km/h 10.4 mph /  16.7 km/h 80 % 0.00 in /  0 mm
16:45 75.5 °F /  24.2 °C 68.9 °F /  20.5 °C 29.80 in /  1009 hPa NNW 4.4 mph /  7.1 km/h 11.0 mph /  17.7 km/h 80 % 0.00 in /  0 mm
16:50 75.6 °F /  24.2 °C 69.0 °F /  20.6 °C 29.80 in /  1009 hPa North 6.1 mph /  9.8 km/h 10.4 mph /  16.7 km/h 80 % 0.00 in /  0 mm
16:55 75.6 °F /  24.2 °C 68.6 °F /  20.3 °C 29.81 in /  1009.4 hPa North 9.2 mph /  14.8 km/h 12.7 mph /  20.4 km/h 79 % 0.00 in /  0 mm
17:00 75.8 °F /  24.3 °C 68.4 °F /  20.2 °C 29.80 in /  1009 hPa North 5.1 mph /  8.2 km/h 10.4 mph /  16.7 km/h 78 % 0.00 in /  0 mm
17:05 75.9 °F /  24.4 °C 68.9 °F /  20.5 °C 29.80 in /  1009 hPa NNE 5.5 mph /  8.9 km/h 6.9 mph /  11.1 km/h 79 % 0.00 in /  0 mm
17:08 76.0 °F /  24.4 °C 69.0 °F /  20.6 °C 29.80 in /  1009 hPa North 6.4 mph /  10.3 km/h 9.2 mph /  14.8 km/h 79 % 0.00 in /  0 mm
17:13 76.1 °F /  24.5 °C 68.7 °F /  20.4 °C 29.81 in /  1009.4 hPa NNE 7.9 mph /  12.7 km/h 11.5 mph /  18.5 km/h 78 % 0.00 in /  0 mm
17:18 76.2 °F /  24.6 °C 68.8 °F /  20.4 °C 29.81 in /  1009.4 hPa NNE 6.2 mph /  10 km/h 11.5 mph /  18.5 km/h 78 % 0.00 in /  0 mm
17:23 76.3 °F /  24.6 °C 68.9 °F /  20.5 °C 29.81 in /  1009.4 hPa NE 3.5 mph /  5.6 km/h 8.1 mph /  13 km/h 78 % 0.00 in /  0 mm
17:28 76.3 °F /  24.6 °C 68.9 °F /  20.5 °C 29.81 in /  1009.4 hPa NNE 2.6 mph /  4.2 km/h 4.6 mph /  7.4 km/h 78 % 0.00 in /  0 mm
17:33 76.3 °F /  24.6 °C 68.9 °F /  20.5 °C 29.82 in /  1009.7 hPa NNE 5.5 mph /  8.9 km/h 10.4 mph /  16.7 km/h 78 % 0.00 in /  0 mm
17:38 76.2 °F /  24.6 °C 68.8 °F /  20.4 °C 29.82 in /  1009.7 hPa NNE 3.5 mph /  5.6 km/h 8.1 mph /  13 km/h 78 % 0.00 in /  0 mm
17:43 76.0 °F /  24.4 °C 68.6 °F /  20.3 °C 29.82 in /  1009.7 hPa NNE 2.8 mph /  4.5 km/h 4.6 mph /  7.4 km/h 78 % 0.00 in /  0 mm
17:48 75.9 °F /  24.4 °C 68.5 °F /  20.3 °C 29.82 in /  1009.7 hPa NNE 4.6 mph /  7.4 km/h 6.9 mph /  11.1 km/h 78 % 0.00 in /  0 mm
17:53 75.9 °F /  24.4 °C 68.9 °F /  20.5 °C 29.82 in /  1009.7 hPa North 1.6 mph /  2.6 km/h 4.6 mph /  7.4 km/h 79 % 0.00 in /  0 mm
17:58 75.8 °F /  24.3 °C 68.8 °F /  20.4 °C 29.82 in /  1009.7 hPa NW 0.2 mph /  0.3 km/h 2.3 mph /  3.7 km/h 79 % 0.00 in /  0 mm
18:03 75.8 °F /  24.3 °C 68.8 °F /  20.4 °C 29.82 in /  1009.7 hPa NNE 4.3 mph /  6.9 km/h 7.0 mph /  11.3 km/h 79 % 0.00 in /  0 mm
18:09 75.7 °F /  24.3 °C 69.1 °F /  20.6 °C 29.82 in /  1009.7 hPa NNE 4.8 mph /  7.7 km/h 6.9 mph /  11.1 km/h 80 % 0.00 in /  0 mm
18:14 75.5 °F /  24.2 °C 68.5 °F /  20.3 °C 29.82 in /  1009.7 hPa NNE 4.2 mph /  6.8 km/h 8.1 mph /  13 km/h 79 % 0.00 in /  0 mm
18:19 75.5 °F /  24.2 °C 68.9 °F /  20.5 °C 29.82 in /  1009.7 hPa NNE 3.9 mph /  6.3 km/h 6.9 mph /  11.1 km/h 80 % 0.00 in /  0 mm
18:24 75.4 °F /  24.1 °C 68.4 °F /  20.2 °C 29.82 in /  1009.7 hPa North 6.6 mph /  10.6 km/h 10.4 mph /  16.7 km/h 79 % 0.00 in /  0 mm
18:29 75.3 °F /  24.1 °C 68.0 °F /  20 °C 29.82 in /  1009.7 hPa North 5.2 mph /  8.4 km/h 11.5 mph /  18.5 km/h 78 % 0.00 in /  0 mm
18:34 75.4 °F /  24.1 °C 68.1 °F /  20.1 °C 29.82 in /  1009.7 hPa NNE 4.5 mph /  7.2 km/h 8.0 mph /  12.9 km/h 78 % 0.00 in /  0 mm
18:39 75.3 °F /  24.1 °C 68.0 °F /  20 °C 29.82 in /  1009.7 hPa NNE 7.3 mph /  11.7 km/h 11.5 mph /  18.5 km/h 78 % 0.00 in /  0 mm
18:44 75.4 °F /  24.1 °C 67.7 °F /  19.8 °C 29.82 in /  1009.7 hPa NNE 2.2 mph /  3.5 km/h 5.8 mph /  9.3 km/h 77 % 0.00 in /  0 mm
18:49 75.4 °F /  24.1 °C 67.7 °F /  19.8 °C 29.82 in /  1009.7 hPa NE 4.1 mph /  6.6 km/h 6.9 mph /  11.1 km/h 77 % 0.00 in /  0 mm
18:54 75.4 °F /  24.1 °C 68.1 °F /  20.1 °C 29.82 in /  1009.7 hPa North 6.3 mph /  10.1 km/h 9.0 mph /  14.5 km/h 78 % 0.00 in /  0 mm
18:59 75.4 °F /  24.1 °C 68.1 °F /  20.1 °C 29.82 in /  1009.7 hPa NNE 3.7 mph /  6 km/h 6.9 mph /  11.1 km/h 78 % 0.00 in /  0 mm
19:04 75.3 °F /  24.1 °C 68.0 °F /  20 °C 29.82 in /  1009.7 hPa NW 3.5 mph /  5.6 km/h 4.6 mph /  7.4 km/h 78 % 0.00 in /  0 mm
19:09 75.3 °F /  24.1 °C 68.0 °F /  20 °C 29.83 in /  1010 hPa NNE 4.8 mph /  7.7 km/h 6.9 mph /  11.1 km/h 78 % 0.00 in /  0 mm
19:14 75.2 °F /  24 °C 67.9 °F /  19.9 °C 29.83 in /  1010 hPa North 2.6 mph /  4.2 km/h 9.2 mph /  14.8 km/h 78 % 0.00 in /  0 mm
19:19 75.1 °F /  23.9 °C 67.8 °F /  19.9 °C 29.83 in /  1010 hPa NW 4.1 mph /  6.6 km/h 6.9 mph /  11.1 km/h 78 % 0.00 in /  0 mm
19:24 75.0 °F /  23.9 °C 67.7 °F /  19.8 °C 29.83 in /  1010 hPa NNE 3.8 mph /  6.1 km/h 11.5 mph /  18.5 km/h 78 % 0.00 in /  0 mm
19:29 75.0 °F /  23.9 °C 67.7 °F /  19.8 °C 29.83 in /  1010 hPa North 4.7 mph /  7.6 km/h 6.9 mph /  11.1 km/h 78 % 0.00 in /  0 mm
19:34 74.9 °F /  23.8 °C 67.6 °F /  19.8 °C 29.83 in /  1010 hPa NNE 3.6 mph /  5.8 km/h 8.1 mph /  13 km/h 78 % 0.00 in /  0 mm
19:35 74.9 °F /  23.8 °C 67.6 °F /  19.8 °C 29.83 in /  1010 hPa NNE 5.0 mph /  8 km/h 8.1 mph /  13 km/h 78 % 0.00 in /  0 mm
19:40 74.8 °F /  23.8 °C 67.5 °F /  19.7 °C 29.83 in /  1010 hPa North 3.7 mph /  6 km/h 7.0 mph /  11.3 km/h 78 % 0.00 in /  0 mm
19:45 74.7 °F /  23.7 °C 67.4 °F /  19.7 °C 29.83 in /  1010 hPa NNE 5.1 mph /  8.2 km/h 8.1 mph /  13 km/h 78 % 0.00 in /  0 mm
19:50 74.7 °F /  23.7 °C 67.8 °F /  19.9 °C 29.83 in /  1010 hPa North 3.2 mph /  5.1 km/h 8.1 mph /  13 km/h 79 % 0.00 in /  0 mm
19:56 74.6 °F /  23.7 °C 67.7 °F /  19.8 °C 29.83 in /  1010 hPa NNE 2.3 mph /  3.7 km/h 6.0 mph /  9.7 km/h 79 % 0.00 in /  0 mm
20:01 74.5 °F /  23.6 °C 67.6 °F /  19.8 °C 29.83 in /  1010 hPa NNE 2.9 mph /  4.7 km/h 5.8 mph /  9.3 km/h 79 % 0.00 in /  0 mm
20:06 74.4 °F /  23.6 °C 67.5 °F /  19.7 °C 29.83 in /  1010 hPa NNE 3.8 mph /  6.1 km/h 6.9 mph /  11.1 km/h 79 % 0.00 in /  0 mm
20:11 74.3 °F /  23.5 °C 67.7 °F /  19.8 °C 29.83 in /  1010 hPa NNE 4.5 mph /  7.2 km/h 6.0 mph /  9.7 km/h 80 % 0.00 in /  0 mm
20:16 74.2 °F /  23.4 °C 67.6 °F /  19.8 °C 29.83 in /  1010 hPa NNE 3.2 mph /  5.1 km/h 4.6 mph /  7.4 km/h 80 % 0.00 in /  0 mm
20:21 74.1 °F /  23.4 °C 67.5 °F /  19.7 °C 29.83 in /  1010 hPa North 4.6 mph /  7.4 km/h 5.8 mph /  9.3 km/h 80 % 0.00 in /  0 mm
20:26 74.0 °F /  23.3 °C 67.4 °F /  19.7 °C 29.83 in /  1010 hPa North 2.9 mph /  4.7 km/h 3.5 mph /  5.6 km/h 80 % 0.00 in /  0 mm
20:31 73.9 °F /  23.3 °C 67.3 °F /  19.6 °C 29.83 in /  1010 hPa North 3.3 mph /  5.3 km/h 5.8 mph /  9.3 km/h 80 % 0.00 in /  0 mm
20:36 73.8 °F /  23.2 °C 67.6 °F /  19.8 °C 29.83 in /  1010 hPa North 2.2 mph /  3.5 km/h 4.6 mph /  7.4 km/h 81 % 0.00 in /  0 mm
20:41 73.8 °F /  23.2 °C 67.6 °F /  19.8 °C 29.83 in /  1010 hPa NNW 3.4 mph /  5.5 km/h 6.0 mph /  9.7 km/h 81 % 0.00 in /  0 mm
20:46 73.7 °F /  23.2 °C 67.5 °F /  19.7 °C 29.83 in /  1010 hPa NNE 3.5 mph /  5.6 km/h 5.8 mph /  9.3 km/h 81 % 0.00 in /  0 mm
20:51 73.6 °F /  23.1 °C 67.4 °F /  19.7 °C 29.83 in /  1010 hPa North 3.1 mph /  5 km/h 4.6 mph /  7.4 km/h 81 % 0.00 in /  0 mm
20:56 73.5 °F /  23.1 °C 67.3 °F /  19.6 °C 29.84 in /  1010.4 hPa NNE 5.7 mph /  9.2 km/h 8.1 mph /  13 km/h 81 % 0.00 in /  0 mm
21:01 73.5 °F /  23.1 °C 66.9 °F /  19.4 °C 29.83 in /  1010 hPa NNE 5.2 mph /  8.4 km/h 9.0 mph /  14.5 km/h 80 % 0.00 in /  0 mm
21:02 73.4 °F /  23 °C 66.9 °F /  19.4 °C 29.84 in /  1010.4 hPa NNE 6.1 mph /  9.8 km/h 9.2 mph /  14.8 km/h 80 % 0.00 in /  0 mm
21:07 73.5 °F /  23.1 °C 66.9 °F /  19.4 °C 29.84 in /  1010.4 hPa NE 3.8 mph /  6.1 km/h 5.8 mph /  9.3 km/h 80 % 0.00 in /  0 mm
21:12 73.5 °F /  23.1 °C 66.9 °F /  19.4 °C 29.84 in /  1010.4 hPa NE 3.4 mph /  5.5 km/h 5.0 mph /  8 km/h 80 % 0.00 in /  0 mm
21:17 73.5 °F /  23.1 °C 67.3 °F /  19.6 °C 29.84 in /  1010.4 hPa NNE 0.3 mph /  0.5 km/h 3.5 mph /  5.6 km/h 81 % 0.00 in /  0 mm
21:22 73.5 °F /  23.1 °C 67.3 °F /  19.6 °C 29.84 in /  1010.4 hPa NNE 4.8 mph /  7.7 km/h 8.0 mph /  12.9 km/h 81 % 0.00 in /  0 mm
21:28 73.4 °F /  23 °C 67.2 °F /  19.6 °C 29.84 in /  1010.4 hPa NNE 2.8 mph /  4.5 km/h 5.8 mph /  9.3 km/h 81 % 0.00 in /  0 mm
21:33 73.4 °F /  23 °C 66.9 °F /  19.4 °C 29.85 in /  1010.7 hPa NNE 3.8 mph /  6.1 km/h 10.4 mph /  16.7 km/h 80 % 0.00 in /  0 mm
21:38 73.3 °F /  22.9 °C 66.8 °F /  19.3 °C 29.85 in /  1010.7 hPa North 4.4 mph /  7.1 km/h 9.2 mph /  14.8 km/h 80 % 0.00 in /  0 mm
21:43 73.3 °F /  22.9 °C 67.1 °F /  19.5 °C 29.84 in /  1010.4 hPa North 3.8 mph /  6.1 km/h 5.8 mph /  9.3 km/h 81 % 0.00 in /  0 mm
21:48 73.3 °F /  22.9 °C 67.1 °F /  19.5 °C 29.84 in /  1010.4 hPa NNW 2.2 mph /  3.5 km/h 5.8 mph /  9.3 km/h 81 % 0.00 in /  0 mm
21:53 73.3 °F /  22.9 °C 67.1 °F /  19.5 °C 29.84 in /  1010.4 hPa North 2.9 mph /  4.7 km/h 4.6 mph /  7.4 km/h 81 % 0.00 in /  0 mm
21:58 73.3 °F /  22.9 °C 66.8 °F /  19.3 °C 29.84 in /  1010.4 hPa NNW 3.9 mph /  6.3 km/h 8.1 mph /  13 km/h 80 % 0.00 in /  0 mm
22:03 73.2 °F /  22.9 °C 67.0 °F /  19.4 °C 29.85 in /  1010.7 hPa NNE 3.0 mph /  4.8 km/h 7.0 mph /  11.3 km/h 81 % 0.00 in /  0 mm
22:08 73.2 °F /  22.9 °C 66.7 °F /  19.3 °C 29.84 in /  1010.4 hPa North 4.7 mph /  7.6 km/h 6.9 mph /  11.1 km/h 80 % 0.00 in /  0 mm
22:13 73.2 °F /  22.9 °C 67.0 °F /  19.4 °C 29.84 in /  1010.4 hPa NNW 2.8 mph /  4.5 km/h 4.6 mph /  7.4 km/h 81 % 0.00 in /  0 mm
22:18 73.2 °F /  22.9 °C 67.0 °F /  19.4 °C 29.84 in /  1010.4 hPa NNW 4.8 mph /  7.7 km/h 8.0 mph /  12.9 km/h 81 % 0.00 in /  0 mm
22:23 73.2 °F /  22.9 °C 67.0 °F /  19.4 °C 29.84 in /  1010.4 hPa NNE 2.7 mph /  4.3 km/h 5.8 mph /  9.3 km/h 81 % 0.00 in /  0 mm
22:28 73.1 °F /  22.8 °C 66.6 °F /  19.2 °C 29.84 in /  1010.4 hPa NNE 5.1 mph /  8.2 km/h 8.1 mph /  13 km/h 80 % 0.00 in /  0 mm
22:33 73.1 °F /  22.8 °C 66.9 °F /  19.4 °C 29.84 in /  1010.4 hPa NNE 4.5 mph /  7.2 km/h 6.9 mph /  11.1 km/h 81 % 0.00 in /  0 mm
22:38 73.2 °F /  22.9 °C 67.0 °F /  19.4 °C 29.84 in /  1010.4 hPa NNE 1.8 mph /  2.9 km/h 3.5 mph /  5.6 km/h 81 % 0.00 in /  0 mm
22:43 73.1 °F /  22.8 °C 66.9 °F /  19.4 °C 29.84 in /  1010.4 hPa North 6.2 mph /  10 km/h 9.2 mph /  14.8 km/h 81 % 0.00 in /  0 mm
22:48 73.1 °F /  22.8 °C 66.9 °F /  19.4 °C 29.84 in /  1010.4 hPa NNE 4.2 mph /  6.8 km/h 6.9 mph /  11.1 km/h 81 % 0.00 in /  0 mm
22:53 73.1 °F /  22.8 °C 66.9 °F /  19.4 °C 29.84 in /  1010.4 hPa NNE 4.1 mph /  6.6 km/h 6.9 mph /  11.1 km/h 81 % 0.00 in /  0 mm
22:58 73.2 °F /  22.9 °C 67.0 °F /  19.4 °C 29.84 in /  1010.4 hPa NNW 0.7 mph /  1.1 km/h 4.6 mph /  7.4 km/h 81 % 0.00 in /  0 mm
23:03 73.2 °F /  22.9 °C 67.4 °F /  19.7 °C 29.84 in /  1010.4 hPa NE 1.3 mph /  2.1 km/h 3.5 mph /  5.6 km/h 82 % 0.00 in /  0 mm
23:08 73.1 °F /  22.8 °C 67.3 °F /  19.6 °C 29.85 in /  1010.7 hPa North 3.4 mph /  5.5 km/h 5.8 mph /  9.3 km/h 82 % 0.00 in /  0 mm
23:13 73.1 °F /  22.8 °C 67.3 °F /  19.6 °C 29.84 in /  1010.4 hPa North 3.7 mph /  6 km/h 6.9 mph /  11.1 km/h 82 % 0.00 in /  0 mm
23:18 73.0 °F /  22.8 °C 67.2 °F /  19.6 °C 29.85 in /  1010.7 hPa NNE 3.4 mph /  5.5 km/h 8.1 mph /  13 km/h 82 % 0.00 in /  0 mm
23:20 73.0 °F /  22.8 °C 67.2 °F /  19.6 °C 29.84 in /  1010.4 hPa NNE 2.4 mph /  3.9 km/h 3.5 mph /  5.6 km/h 82 % 0.00 in /  0 mm
23:22 73.0 °F /  22.8 °C 67.2 °F /  19.6 °C 29.85 in /  1010.7 hPa NNE 4.0 mph /  6.4 km/h 5.8 mph /  9.3 km/h 82 % 0.00 in /  0 mm
23:27 73.0 °F /  22.8 °C 67.2 °F /  19.6 °C 29.85 in /  1010.7 hPa North 3.4 mph /  5.5 km/h 6.9 mph /  11.1 km/h 82 % 0.00 in /  0 mm
23:30 73.0 °F /  22.8 °C 67.2 °F /  19.6 °C 29.85 in /  1010.7 hPa North 3.7 mph /  6 km/h 5.8 mph /  9.3 km/h 82 % 0.00 in /  0 mm
23:35 72.9 °F /  22.7 °C 67.1 °F /  19.5 °C 29.85 in /  1010.7 hPa North 6.3 mph /  10.1 km/h 10.4 mph /  16.7 km/h 82 % 0.00 in /  0 mm
23:40 72.9 °F /  22.7 °C 67.1 °F /  19.5 °C 29.85 in /  1010.7 hPa North 3.3 mph /  5.3 km/h 6.9 mph /  11.1 km/h 82 % 0.00 in /  0 mm
23:45 72.9 °F /  22.7 °C 67.4 °F /  19.7 °C 29.85 in /  1010.7 hPa North 2.9 mph /  4.7 km/h 4.6 mph /  7.4 km/h 83 % 0.00 in /  0 mm
23:50 72.9 °F /  22.7 °C 67.4 °F /  19.7 °C 29.85 in /  1010.7 hPa NNE 5.1 mph /  8.2 km/h 10.4 mph /  16.7 km/h 83 % 0.00 in /  0 mm
23:55 72.9 °F /  22.7 °C 67.1 °F /  19.5 °C 29.85 in /  1010.7 hPa NNE 3.4 mph /  5.5 km/h 5.8 mph /  9.3 km/h 82 % 0.00 in /  0 mm
Crab Meadow Weather
Compliments of Weather Underground - 3 mb

Script developed by  Jim McMurry - jmcmurry@mwt.net Adapted for the template by  Wim van der Kuil - Leuven-Template.eu

Recycling: Out of every $10 spent buying things, $1 (10%) goes for packaging that is thrown away. Packaging represents about 65% of household trash.